PROFILE

 METAR AND TAF INFORMATION
ADDS - METARS form results

(2145 UTC 10 December 2018)
http://aviationweather.gov/metar/data/
 
CYHM 102100Z 23003KT 8SM OVC024 M01/M03 A3015 RMK SC8 SLP221
TAF CYHM 101739Z 1018/1118 24006KT P6SM OVC020 TEMPO 1018/1102 OVC025 FM110200 24006KT P6SM OVC015 FM110900 23008KT 4SM -SN BR OVC012 PROB30 1109/1115 21/2SM -FZDZ BR OVC008 FM111500 25012G22KT P6SM OVC015 RMK NXT FCST BY 110000Z 

 AIRPORT MAP

 RUNWAY INFORMATION
Runway 06 Runway length 6000 ft Runway width 150 ft
Runway elevation 771 ft Runway displaced threshold 0 ft Runway heading 49
Runway 24 Runway length 6000 ft Runway width 150 ft
Runway elevation 755 ft Runway displaced threshold 0 ft Runway heading 229
Runway 12 Runway length 10000 ft Runway width 200 ft
Runway elevation 776 ft Runway displaced threshold 1600 ft Runway heading 108
Runway 30 Runway length 10000 ft Runway width 200 ft
Runway elevation 767 ft Runway displaced threshold 400 ft Runway heading 288

 AIRPORT FREQUENCIES
Type A/D Name TORONTO TR Frequency 119.7 MHZ
Type ATIS Name ATIS Frequency 128.1 MHZ
Type GND Name GND Frequency 121.6 MHZ
Type TWR Name TWR Frequency 125 MHZ

 AIRPORT NEAR NAVIGATION AIDS
Type NDB Name Hamilton Frequency 221 KHZ
Type NDB Name Ancaster Frequency 397 KHZ
Type NDB Name Binbrook Frequency 266 KHZ